TimeEET,TemperatureF,Dew PointF,Humidity,Sea Level PressureIn,VisibilityMPH,Wind Direction,Wind SpeedMPH,Gust SpeedMPH,PrecipitationIn,Events,Conditions,WindDirDegrees,DateUTC
12:20 AM,53.6,50.0,88,29.98,3.1,Calm,Calm,-,N/A,,Partly Cloudy,0,2012-11-21 22:20:00
12:50 AM,55.4,50.0,82,29.98,3.1,North,3.5,-,N/A,,Partly Cloudy,350,2012-11-21 22:50:00
1:20 AM,55.4,50.0,82,29.98,3.1,NE,3.5,-,N/A,,Scattered Clouds,40,2012-11-21 23:20:00
1:50 AM,57.2,51.8,82,29.98,3.1,NE,5.8,-,N/A,,Mostly Cloudy,40,2012-11-21 23:50:00
2:20 AM,57.2,50.0,77,29.98,3.1,North,2.3,-,N/A,,Mostly Cloudy,360,2012-11-22 00:20:00
2:50 AM,55.4,50.0,82,29.95,3.1,NNE,3.5,-,N/A,,Scattered Clouds,20,2012-11-22 00:50:00
3:20 AM,57.2,48.2,72,29.95,3.1,ENE,3.5,-,N/A,,Scattered Clouds,60,2012-11-22 01:20:00
3:50 AM,57.2,50.0,77,29.95,3.1,North,3.5,-,N/A,,Scattered Clouds,10,2012-11-22 01:50:00
4:20 AM,55.4,48.2,77,29.95,3.1,NNE,2.3,-,N/A,,Scattered Clouds,20,2012-11-22 02:20:00
4:50 AM,51.8,48.2,88,29.95,3.1,Calm,Calm,-,N/A,,Scattered Clouds,0,2012-11-22 02:50:00
5:20 AM,51.8,48.2,88,29.95,3.1,South,1.2,-,N/A,,Scattered Clouds,180,2012-11-22 03:20:00
5:50 AM,53.6,48.2,82,29.95,3.1,Calm,Calm,-,N/A,,Mostly Cloudy,0,2012-11-22 03:50:00
6:20 AM,55.4,50.0,82,29.95,3.1,North,3.5,-,N/A,,Mostly Cloudy,360,2012-11-22 04:20:00
6:50 AM,59.0,48.2,67,29.95,3.1,NNE,6.9,-,N/A,,Mostly Cloudy,20,2012-11-22 04:50:00
7:20 AM,59.0,48.2,67,29.95,3.1,NNE,3.5,-,N/A,,Haze,20,2012-11-22 05:20:00
7:50 AM,60.8,50.0,68,29.98,6.2,NNE,2.3,-,N/A,,Mostly Cloudy,30,2012-11-22 05:50:00
8:20 AM,62.6,50.0,63,29.98,6.2,Variable,2.3,-,N/A,,Mostly Cloudy,0,2012-11-22 06:20:00
8:50 AM,59.0,51.8,77,29.98,6.2,South,3.5,-,N/A,,Mostly Cloudy,180,2012-11-22 06:50:00
9:20 AM,60.8,53.6,77,29.98,6.2,Variable,1.2,-,N/A,,Mostly Cloudy,0,2012-11-22 07:20:00
9:50 AM,62.6,51.8,68,29.98,6.2,NNW,3.5,-,N/A,,Mostly Cloudy,330,2012-11-22 07:50:00
10:20 AM,64.4,51.8,64,29.98,6.2,North,4.6,-,N/A,,Mostly Cloudy,350,2012-11-22 08:20:00
10:50 AM,64.4,51.8,64,29.98,3.1,North,4.6,-,N/A,,Haze,350,2012-11-22 08:50:00
11:20 AM,66.2,50.0,56,29.95,3.1,North,4.6,-,N/A,,Haze,10,2012-11-22 09:20:00
11:50 AM,66.2,51.8,60,29.95,3.1,NNE,3.5,-,N/A,,Haze,30,2012-11-22 09:50:00
12:20 PM,66.2,53.6,64,29.95,3.1,NE,4.6,-,N/A,,Haze,40,2012-11-22 10:20:00
12:50 PM,66.2,53.6,64,29.92,3.1,North,4.6,-,N/A,,Haze,350,2012-11-22 10:50:00
1:20 PM,66.2,53.6,64,29.92,3.1,North,3.5,-,N/A,,Haze,360,2012-11-22 11:20:00
1:50 PM,66.2,53.6,64,29.92,3.1,NNE,6.9,-,N/A,,Haze,30,2012-11-22 11:50:00
2:20 PM,66.2,51.8,60,29.92,3.1,NNE,5.8,-,N/A,,Haze,30,2012-11-22 12:20:00
2:50 PM,66.2,51.8,60,29.92,3.1,NNE,6.9,-,N/A,,Haze,20,2012-11-22 12:50:00
3:20 PM,66.2,51.8,60,29.92,3.1,NNE,6.9,-,N/A,,Haze,30,2012-11-22 13:20:00
3:50 PM,66.2,50.0,56,29.92,3.1,North,6.9,-,N/A,,Haze,360,2012-11-22 13:50:00
4:20 PM,64.4,51.8,64,29.92,3.1,NNW,6.9,-,N/A,,Haze,330,2012-11-22 14:20:00
4:50 PM,64.4,51.8,64,29.92,3.1,North,9.2,-,N/A,Rain,Light Rain Showers,350,2012-11-22 14:50:00
5:20 PM,62.6,51.8,68,29.92,3.1,NNE,9.2,-,N/A,,Haze,20,2012-11-22 15:20:00
5:50 PM,62.6,51.8,68,29.92,3.1,North,10.4,-,N/A,,Haze,10,2012-11-22 15:50:00
6:20 PM,62.6,51.8,68,29.92,3.1,North,8.1,-,N/A,,Haze,10,2012-11-22 16:20:00
6:50 PM,62.6,51.8,68,29.92,3.1,NNW,6.9,-,N/A,,Haze,340,2012-11-22 16:50:00
7:20 PM,62.6,51.8,68,29.92,3.1,NNW,6.9,-,N/A,,Mostly Cloudy,340,2012-11-22 17:20:00
7:50 PM,62.6,51.8,68,29.95,3.1,North,5.8,-,N/A,,Haze,350,2012-11-22 17:50:00
8:20 PM,60.8,51.8,72,29.95,3.1,North,4.6,-,N/A,,Mostly Cloudy,360,2012-11-22 18:20:00
8:50 PM,60.8,51.8,72,29.95,3.1,North,5.8,-,N/A,,Haze,360,2012-11-22 18:50:00
9:20 PM,62.6,51.8,68,29.95,3.1,North,5.8,-,N/A,,Haze,10,2012-11-22 19:20:00
9:50 PM,62.6,50.0,63,29.95,3.1,North,3.5,-,N/A,,Haze,350,2012-11-22 19:50:00
10:20 PM,62.6,50.0,63,29.95,3.1,North,4.6,-,N/A,,Haze,360,2012-11-22 20:20:00
10:50 PM,60.8,50.0,68,29.95,3.1,North,4.6,-,N/A,,Haze,360,2012-11-22 20:50:00
11:20 PM,62.6,50.0,63,29.95,3.1,North,5.8,-,N/A,,Haze,10,2012-11-22 21:20:00
11:50 PM,62.6,50.0,63,29.92,3.1,North,4.6,-,N/A,,Haze,360,2012-11-22 21:50:00